GFSCGP_850_thetae_276.txt.gz
Theta_e
303 310 306 303 303 303 303 304 304 305 304 303 303 302 302 303 301 301 300 299 298 298 297 296 295 294 294 293 293 294 295 296 298 299 301 302 303 303 304 306 303 302 304 309
307 310 303 303 303 303 303 304 304 304 303 302 302 302 302 302 301 300 299 299 298 297 296 295 293 293 293 292 292 293 294 295 296 298 301 302 302 305 306 306 305 303 303 306
304 305 302 302 303 303 303 303 301 301 302 302 302 302 303 302 301 300 299 298 297 296 294 293 292 292 292 292 292 293 294 294 295 297 299 302 302 303 306 308 309 307 305 306
304 302 302 303 303 302 301 303 302 301 297 299 301 299 302 302 302 300 299 298 297 295 293 292 292 291 291 291 292 292 294 295 296 297 299 301 303 304 304 306 306 305 305 309
305 302 303 303 303 302 302 301 301 302 297 298 302 298 302 301 301 298 297 297 296 294 292 291 290 290 289 290 290 292 293 295 297 299 301 301 303 303 306 307 308 309 309 310
302 300 299 302 301 301 302 301 301 301 297 301 296 296 299 301 299 296 297 296 295 293 291 290 289 289 288 289 290 290 292 295 298 300 303 303 302 304 306 307 308 310 311 310
304 302 299 298 302 302 300 297 298 298 300 300 293 298 298 299 297 296 295 295 293 292 290 289 288 288 288 288 289 290 291 294 297 300 302 303 302 305 306 308 309 310 310 309
299 299 299 299 301 300 300 297 296 296 298 300 294 296 300 297 298 296 295 294 292 291 289 288 288 287 287 287 288 289 291 293 295 299 301 305 305 306 307 306 308 308 308 308
300 301 298 298 299 299 300 299 298 294 293 297 296 299 299 297 292 294 294 293 291 290 289 288 287 286 286 287 288 289 290 292 294 298 300 302 306 306 306 307 307 309 309 307
298 296 298 298 299 298 298 297 295 294 296 296 296 295 298 290 289 291 292 292 291 290 289 287 286 286 286 286 287 288 290 292 294 296 298 300 301 302 302 303 303 303 305 307
297 294 297 297 294 298 297 296 294 294 297 300 297 296 292 289 288 289 290 292 291 290 289 287 286 285 285 285 286 287 288 291 294 295 297 298 299 300 301 301 302 301 304 306
298 299 294 297 301 298 299 297 298 293 293 298 300 299 293 289 288 293 293 292 291 290 289 288 286 285 284 284 285 285 287 290 294 295 295 296 297 298 301 303 304 303 304 307
297 295 293 299 297 296 295 298 299 296 297 294 296 296 290 292 290 293 293 293 291 290 289 288 287 285 284 284 284 284 285 289 290 293 295 296 296 297 298 300 301 301 303 305
297 298 293 295 294 292 294 297 298 296 291 294 297 298 298 292 289 291 293 292 292 288 287 288 287 286 286 285 285 285 286 287 288 290 292 295 297 298 299 301 301 302 302 301
296 291 296 296 295 295 295 294 294 294 296 292 295 291 296 295 294 293 294 292 290 288 286 286 287 286 286 286 286 285 285 286 288 289 291 293 296 298 300 301 302 302 302 302
295 290 289 289 293 294 293 294 294 293 292 291 294 295 295 295 295 294 292 292 288 287 286 285 284 287 287 286 285 285 285 285 286 288 289 291 293 294 297 298 301 302 301 303
292 291 287 291 292 290 290 289 290 291 290 289 290 292 286 286 285 292 292 291 287 287 285 284 284 284 288 287 286 286 285 285 286 286 287 288 289 291 292 294 296 296 297 299
288 289 288 287 288 292 293 296 293 291 293 293 292 290 288 288 291 291 291 291 287 286 285 284 284 285 287 288 288 287 287 287 286 286 286 287 288 289 290 291 292 293 294 296
292 291 288 286 286 293 296 294 293 293 294 295 295 293 294 293 291 291 292 289 287 287 286 285 284 284 284 289 291 289 289 288 287 286 286 286 287 288 290 290 291 292 292 292
292 292 290 285 285 289 297 294 295 295 293 297 297 296 293 291 289 289 292 288 287 287 287 285 285 285 285 285 289 290 290 288 289 288 288 289 289 289 291 291 291 291 291 290
290 291 291 292 286 291 294 294 294 291 294 295 296 296 293 290 291 292 289 288 288 287 287 286 285 286 286 285 285 288 289 289 287 287 287 289 290 290 290 293 292 290 289 288
291 291 290 291 289 293 294 292 294 295 293 294 294 293 292 292 291 290 289 289 288 288 287 287 286 286 287 286 285 285 287 288 288 288 288 288 287 287 288 288 287 287 288 289
289 293 292 293 293 294 294 294 295 295 294 294 294 293 292 291 291 290 290 289 289 289 288 287 287 286 286 287 286 286 285 286 287 288 288 289 289 290 290 290 289 289 289 289
287 291 289 288 292 292 292 294 293 294 295 295 294 293 291 291 291 290 290 289 289 289 288 288 287 286 287 287 287 287 286 286 286 287 287 287 288 288 288 288 288 288 288 288
291 288 289 291 291 292 293 293 295 294 293 293 294 293 292 291 291 290 290 290 289 288 288 289 288 287 288 288 288 288 287 287 287 286 286 287 287 287 287 287 287 287 286 286
287 292 291 296 297 295 296 297 296 295 294 293 292 293 292 291 291 290 290 290 290 290 289 289 289 287 289 288 288 288 288 288 287 287 286 286 287 287 286 286 286 285 285 285

GFSCGP_850_thetae_279.txt.gz
Theta_e
303 300 296 301 301 302 302 302 300 301 303 301 301 300 300 301 301 299 300 299 299 298 297 297 296 294 293 292 292 292 292 292 293 293 294 296 298 301 301 301 302 303 303 302
300 300 301 302 302 302 301 296 296 300 301 300 299 300 300 300 299 300 299 299 298 297 297 295 295 293 292 291 291 291 291 292 293 294 294 295 296 299 301 302 305 304 304 303
297 303 301 302 301 300 300 297 297 299 299 298 299 297 301 300 299 300 299 298 297 296 295 295 293 291 290 290 290 290 290 291 293 294 295 295 296 298 300 301 305 307 306 306
299 301 301 302 301 298 296 301 300 299 293 294 298 295 299 300 300 299 297 297 295 295 294 293 291 290 289 289 288 289 290 291 292 295 295 296 297 298 299 302 303 305 309 308
297 301 302 299 301 299 298 299 300 300 289 294 294 293 298 300 300 297 295 295 295 294 293 291 289 288 288 288 288 288 289 290 292 294 296 297 299 299 300 302 304 305 307 306
296 299 298 299 299 299 300 297 296 295 289 291 291 292 297 298 299 296 295 295 294 293 291 289 288 288 287 288 288 288 289 291 293 294 296 299 300 302 301 302 305 308 307 309
297 299 298 298 300 299 295 289 288 290 291 296 287 295 297 297 295 295 294 294 293 292 290 289 288 287 287 287 287 288 288 291 293 294 296 299 301 302 302 303 306 306 308 309
291 292 293 299 299 295 297 291 289 288 293 293 286 294 296 296 295 294 294 293 292 291 291 289 288 287 286 286 287 286 288 290 292 294 295 297 300 303 303 304 306 306 308 308
291 295 297 298 299 295 294 293 295 287 284 292 290 292 296 295 289 292 293 293 292 291 291 289 288 287 286 285 286 286 287 289 292 294 294 296 299 302 305 306 307 307 307 308
295 290 291 295 298 296 293 295 291 287 290 290 290 287 297 290 288 288 290 292 292 291 290 290 289 287 286 285 285 286 286 288 290 293 295 296 299 301 302 305 306 307 306 307
291 287 291 295 289 291 290 290 289 288 293 290 290 293 289 289 285 286 289 292 291 290 289 288 290 287 286 285 285 285 285 286 288 291 294 297 298 299 299 302 301 302 302 301
296 294 292 292 297 297 293 291 294 290 287 292 294 297 285 285 285 290 292 293 292 291 288 287 289 288 286 285 285 285 285 285 287 290 293 295 297 298 298 299 299 301 302 303
296 288 286 292 293 294 292 295 295 289 294 294 290 292 285 283 285 293 292 294 291 290 288 287 287 289 287 285 285 285 285 285 287 290 292 294 295 295 296 297 299 300 302 303
297 296 290 292 289 286 291 295 297 293 286 289 292 294 295 293 285 288 292 294 291 288 286 286 286 289 288 286 285 285 285 285 286 287 290 292 294 296 296 298 298 299 300 302
294 291 294 294 292 290 294 293 291 293 294 291 294 288 292 293 289 293 294 293 291 288 286 285 285 287 288 287 286 285 285 285 286 287 289 291 293 295 297 298 299 299 299 300
295 288 286 286 292 293 292 293 292 291 292 291 294 294 294 294 292 293 292 291 291 287 285 285 284 286 288 287 286 285 285 285 286 286 287 289 291 293 295 296 297 298 300 300
292 287 284 287 290 288 291 288 287 286 284 286 287 289 279 283 281 291 291 291 290 287 286 286 284 285 287 288 287 286 285 285 285 286 286 287 289 291 292 294 296 298 298 298
287 287 282 284 283 288 295 293 289 290 289 286 286 287 285 289 293 293 292 290 289 287 286 286 285 284 286 289 289 288 287 286 286 286 286 287 287 288 290 292 292 293 294 295
291 287 285 286 277 288 294 293 294 294 293 292 291 292 291 294 292 291 291 291 288 287 287 286 286 284 285 287 290 289 289 288 287 286 286 286 287 287 288 289 289 289 291 291
292 291 289 279 284 286 294 294 295 293 291 292 293 293 293 291 287 285 292 289 288 288 287 286 286 285 285 285 288 290 290 289 288 287 287 287 287 288 288 289 289 289 291 290
287 289 292 292 286 286 290 293 294 288 293 295 296 295 294 289 289 292 290 289 289 288 287 287 286 286 286 285 286 288 289 288 287 287 288 288 288 288 288 289 289 290 290 291
287 287 286 286 285 289 291 292 293 294 294 294 294 295 295 294 291 291 290 289 289 289 288 287 286 286 286 286 285 286 287 288 288 288 288 288 288 288 288 288 288 289 288 288
289 289 288 290 290 293 294 294 296 296 296 295 294 295 294 293 292 291 290 289 290 290 288 287 287 286 287 286 286 285 286 287 287 288 289 289 289 288 288 289 288 288 288 288
286 289 289 288 292 292 293 294 295 295 295 295 295 295 293 293 292 291 291 289 290 290 289 287 288 287 287 287 287 286 286 285 286 286 287 287 288 288 288 288 287 287 287 288
290 288 288 288 290 292 292 294 295 295 295 294 294 293 293 293 292 291 291 290 290 289 288 288 288 287 288 287 287 286 286 285 284 285 285 286 287 287 287 286 285 285 285 285
288 292 292 296 298 296 297 299 298 297 296 295 294 293 292 293 293 291 291 290 290 290 290 289 289 288 289 289 288 288 287 286 286 286 286 286 285 285 284 285 286 286 285 285

GFSCGP_850_thetae_285.txt.gz
Theta_e
301 298 296 300 299 298 299 300 299 298 299 298 298 297 298 298 298 298 299 299 299 298 297 297 298 296 296 296 295 295 294 294 292 292 292 292 292 294 296 296 296 297 296 296
296 297 299 300 300 301 299 294 294 297 298 298 297 297 298 297 297 299 298 298 298 297 298 298 296 296 295 295 294 293 292 291 291 291 291 290 290 291 293 296 296 296 297 295
295 301 300 300 300 299 299 295 294 299 298 296 295 296 296 298 298 298 298 298 297 296 296 296 296 295 294 294 293 292 291 290 290 291 290 290 290 290 292 294 295 295 296 297
296 301 300 300 300 298 295 298 299 299 293 292 295 295 296 297 298 296 297 297 297 297 296 296 295 293 293 293 292 292 291 290 289 289 289 289 290 290 291 292 294 297 296 297
296 301 300 299 300 297 298 298 298 295 286 293 290 291 296 296 298 297 296 296 297 295 295 295 293 291 291 291 293 292 290 289 289 289 288 289 289 290 291 292 294 295 297 298
294 299 298 298 298 298 296 293 291 290 285 289 287 290 296 295 296 296 296 297 296 295 296 294 292 291 291 290 292 290 289 289 288 287 288 288 288 290 292 292 294 297 299 300
294 297 297 297 298 296 293 285 287 289 286 292 280 291 295 294 294 294 294 297 295 295 295 293 292 291 289 290 291 290 289 289 288 286 287 288 289 291 292 293 295 298 300 301
289 294 292 297 297 292 294 287 288 286 288 289 283 292 294 293 295 296 296 295 294 296 296 293 291 289 288 289 292 290 289 288 287 287 288 288 290 292 293 293 295 298 301 301
291 292 295 296 298 294 291 291 290 284 279 285 286 288 292 293 289 292 293 293 294 296 296 293 291 289 287 288 291 290 288 287 287 287 288 289 291 292 293 294 296 298 300 303
292 292 290 294 297 293 290 291 291 286 288 285 285 280 291 288 289 288 290 293 296 296 295 293 291 288 286 288 291 290 288 286 286 286 287 289 291 292 293 295 297 298 299 302
288 287 290 295 290 290 294 288 288 286 289 287 286 290 285 287 286 285 287 295 296 296 294 293 290 287 286 287 290 289 287 286 286 286 287 289 291 292 293 295 296 298 299 301
294 291 289 292 293 292 291 288 292 291 286 286 290 293 286 284 279 284 290 294 296 295 293 292 288 286 285 286 290 289 287 286 285 286 287 289 290 292 294 295 295 296 297 300
296 287 287 294 292 293 292 293 293 289 291 289 290 294 281 277 282 290 290 294 293 293 292 290 286 285 285 288 290 289 287 285 285 286 287 289 290 292 294 295 295 296 297 299
297 293 291 296 293 285 292 295 296 296 289 294 294 296 296 295 293 290 290 293 293 292 291 289 286 286 286 287 290 288 286 285 285 286 287 289 291 293 294 295 296 296 297 297
293 289 292 291 290 286 293 293 294 295 296 293 297 289 294 294 292 292 293 293 294 292 291 287 286 286 286 287 290 288 286 285 285 286 287 288 290 292 294 295 296 296 297 297
293 288 285 284 293 293 291 293 294 293 294 294 294 294 295 295 293 290 292 293 294 292 291 287 286 287 286 287 290 287 286 285 286 286 287 288 289 291 292 294 295 296 297 297
293 290 288 289 286 285 292 293 292 288 283 291 292 293 291 290 283 287 292 292 293 294 289 287 287 287 287 286 289 288 287 286 286 286 286 287 288 290 291 292 293 295 296 297
291 291 291 287 282 288 296 290 288 289 290 286 286 287 283 287 291 292 294 294 294 292 289 287 287 287 287 286 289 289 288 287 286 286 286 287 288 289 289 290 291 292 293 294
293 293 291 287 276 289 295 292 291 291 293 290 290 291 291 290 291 293 293 292 292 290 289 288 287 288 287 286 288 288 289 288 287 286 286 286 287 287 288 288 289 289 290 289
292 293 293 279 288 288 295 293 293 292 291 292 290 290 290 291 289 287 292 292 291 289 289 288 287 288 287 286 287 288 288 289 288 287 287 287 287 287 287 288 288 289 289 289
288 288 293 288 290 287 290 292 292 290 297 294 292 294 292 291 292 292 292 292 290 289 289 288 288 288 288 287 286 288 288 289 289 289 288 288 288 288 288 288 288 289 289 290
288 287 288 289 288 290 290 289 293 296 296 295 296 296 295 295 295 294 293 291 291 290 290 289 288 288 288 288 286 287 288 288 289 289 289 289 289 289 290 290 290 290 290 290
290 290 288 290 291 292 291 294 297 296 295 296 296 297 296 295 294 294 294 293 291 290 290 289 288 287 289 288 287 286 287 287 288 288 288 288 288 288 289 289 289 289 289 289
285 288 288 288 292 290 292 295 296 296 296 297 296 295 295 294 294 294 294 294 292 290 290 290 288 288 288 289 288 287 286 287 287 287 287 287 287 287 287 287 286 286 286 286
290 287 287 287 292 293 294 296 299 298 297 297 298 298 297 295 295 294 293 294 293 291 290 290 289 289 289 289 289 288 288 287 287 287 286 286 286 286 286 286 286 286 286 286
288 292 292 297 298 297 298 299 299 298 297 298 298 298 298 297 297 295 293 293 293 291 290 290 289 289 289 289 289 289 289 288 287 287 287 286 286 286 286 287 287 287 286 286

GFSCGP_850_thetae_291.txt.gz
Theta_e
300 299 298 299 298 296 297 299 299 297 297 298 297 297 298 297 296 295 296 297 299 299 299 298 298 297 297 297 297 296 296 295 294 292 294 295 295 295 295 295 295 294 295 295
296 297 298 298 299 299 298 294 294 296 297 298 296 297 296 295 295 297 298 299 300 299 299 298 298 297 297 297 297 296 295 294 292 292 295 295 294 294 294 294 294 294 294 295
297 300 299 299 299 299 298 295 294 298 297 294 294 295 294 295 296 298 298 299 299 299 299 298 298 298 297 297 297 295 294 293 291 292 293 294 293 293 292 290 291 292 293 293
296 300 300 300 299 298 296 297 298 297 293 293 293 295 296 295 295 296 298 298 299 299 299 299 298 298 297 297 295 293 293 292 290 291 292 292 291 290 291 290 289 291 292 292
297 299 300 298 299 297 297 296 297 293 291 290 290 291 295 294 296 295 295 298 299 299 299 299 298 297 296 296 295 292 292 290 289 290 292 291 290 290 289 288 287 289 291 291
294 298 297 298 296 296 294 291 290 286 284 290 285 291 296 295 295 296 296 297 297 297 297 298 298 296 295 296 294 292 291 289 288 290 292 290 289 289 287 287 287 288 290 291
293 296 296 296 297 295 292 287 290 293 290 295 278 290 296 294 293 293 294 297 297 297 297 297 297 296 295 295 294 291 289 289 289 291 290 289 288 287 287 287 286 287 289 290
290 296 291 295 295 291 293 288 290 290 291 291 281 291 296 292 293 294 294 295 296 296 295 295 295 295 295 294 292 288 288 288 290 290 289 288 287 287 287 287 286 287 289 291
290 292 294 296 295 292 291 290 288 283 276 285 287 288 291 292 287 291 293 294 296 296 295 294 294 295 294 293 290 288 288 288 290 289 287 287 287 287 288 288 288 289 291 292
291 292 289 293 295 292 289 290 291 286 289 289 288 282 294 290 287 284 289 293 295 296 295 294 293 294 293 290 288 289 288 290 289 288 287 287 287 288 289 290 291 291 292 292
287 288 290 294 291 292 292 290 287 287 289 290 288 295 286 287 286 286 287 293 296 296 295 294 294 293 291 288 288 288 289 290 289 287 287 287 287 288 290 291 291 292 293 293
293 291 289 290 292 292 291 290 292 293 290 285 289 294 285 285 278 284 290 296 297 296 295 293 293 293 289 288 289 288 291 290 288 286 287 287 288 289 290 292 292 293 293 294
294 288 288 296 292 291 292 292 292 289 291 288 292 297 285 280 284 293 290 297 297 296 294 292 293 292 288 289 288 288 290 289 287 287 287 287 288 290 291 292 293 294 294 294
296 293 292 298 295 287 292 294 293 293 289 294 294 297 298 297 296 294 295 296 295 295 293 293 294 290 288 289 288 289 290 289 287 287 287 287 288 290 291 292 293 294 294 295
296 291 292 290 289 286 290 290 293 292 292 294 298 293 296 297 296 295 295 295 295 294 293 293 292 289 289 289 287 289 291 288 287 287 287 287 288 289 290 291 292 293 294 294
293 293 285 286 292 292 291 292 292 293 293 292 294 294 295 294 294 293 294 294 294 295 293 293 290 289 289 289 288 289 290 289 288 287 287 287 288 288 289 290 290 291 292 293
293 288 286 291 286 285 292 290 293 287 285 290 289 292 280 289 285 290 293 294 294 294 292 292 290 289 289 289 288 288 289 290 288 287 287 287 287 288 288 289 289 290 290 290
293 290 292 290 282 295 296 291 289 288 288 287 287 287 290 290 292 293 294 294 294 293 292 292 290 289 289 289 288 288 289 290 289 288 288 287 287 287 288 288 288 288 288 288
293 294 293 294 282 290 296 290 289 290 293 290 290 291 290 292 290 297 296 294 294 293 292 291 290 289 289 289 288 288 289 289 290 289 289 287 287 287 288 288 288 288 288 288
292 295 298 284 288 290 295 292 291 291 293 291 290 291 290 290 293 291 297 295 294 294 292 291 290 289 289 289 288 288 288 289 289 290 289 289 288 288 287 287 288 288 288 288
290 292 295 284 290 288 290 291 291 293 297 292 293 294 292 291 294 296 295 295 295 295 293 291 290 289 289 289 289 288 288 288 289 289 289 289 289 289 288 288 288 289 289 289
289 290 290 285 289 291 290 290 293 296 296 295 294 296 295 296 296 297 297 296 295 295 294 293 291 290 289 289 289 289 288 288 288 288 288 288 288 289 289 289 290 290 290 291
291 293 290 291 291 292 291 295 296 296 296 296 295 298 295 294 296 297 298 297 298 296 294 293 292 290 290 289 290 289 288 287 287 287 288 288 287 287 287 288 288 288 288 288
284 287 289 291 292 289 292 294 296 296 296 297 297 297 297 297 297 297 298 297 297 297 297 294 293 292 290 289 289 290 289 288 287 287 287 287 287 287 287 287 286 286 286 286
291 287 287 290 289 292 295 295 297 298 298 297 298 298 298 297 297 297 297 296 297 297 297 295 294 293 290 289 289 290 290 289 288 287 287 286 286 286 286 286 286 285 286 285
287 288 292 295 295 296 298 298 299 299 298 298 298 298 298 297 297 297 296 296 297 297 297 296 295 293 291 289 289 290 290 290 289 288 288 287 287 287 287 287 288 288 287 286